Hourly Data Report for October 13, 2013

All times are specified in Local Standard Time (LST). Add 1 hour to adjust for Daylight Saving Time where and when it is observed.

KAMLOOPS A
BRITISH COLUMBIA

50°42'09.000" N
120°26'55.000" W
345.30 m
1163781
71887
YKA

Download Data

Hourly Data (October 2013)
Hourly Data Report for October 13, 2013
Temp Definition
°C
Dew Point Temp Definition
°C
Rel Hum Definition
%
Wind Dir Definition
10's deg

Wind Spd Definition
km/h
Visibility Definition
km
Stn Press Definition
kPa
Hmdx Definition


Wind Chill Definition


Weather Definition


TIME
00:00 Legend Double Dagger 5.5 0.1 68 7 8 64.4 98.39     LegendNANA
01:00 Legend Double Dagger 5.7 0.3 68 10 10 64.4 98.42     Cloudy
02:00 Legend Double Dagger 5.3 0.1 69 8 8 64.4 98.42     LegendNANA
03:00 Legend Double Dagger 5.1 0.1 70 9 9 64.4 98.45     LegendNANA
04:00 Legend Double Dagger 4.4 -0.2 72 8 8 64.4 98.48     Cloudy
05:00 Legend Double Dagger 2.6 -0.7 79 8 6 64.4 98.52     LegendNANA
06:00 Legend Double Dagger 1.2 -0.7 87 9 9 64.4 98.55     LegendNANA
07:00 Legend Double Dagger 1.1 -1.0 86 8 8 64.4 98.61     Mainly Clear
08:00 Legend Double Dagger 4.1 -0.1 74 9 6 64.4 98.64     LegendNANA
09:00 Legend Double Dagger 5.8 -0.1 66 10 9 64.4 98.63     LegendNANA
10:00 Legend Double Dagger 8.2 0.0 56 12 7 64.4 98.62     Mostly Cloudy
11:00 Legend Double Dagger 9.8 1.2 55 24 5 64.4 98.59     LegendNANA
12:00 Legend Double Dagger 12.2 1.3 47 12 4 64.4 98.52     LegendNANA
13:00 Legend Double Dagger 13.9 -0.5 37 25 4 64.4 98.47     Mainly Clear
14:00 Legend Double Dagger 14.2 -1.8 33 17 7 64.4 98.44     LegendNANA
15:00 Legend Double Dagger 14.5 -1.5 33 11 5 64.4 98.44     LegendNANA
16:00 Legend Double Dagger 14.2 -1.4 34 9 9 64.4 98.45     Clear
17:00 Legend Double Dagger 11.5 -1.3 41 13 6 64.4 98.48     LegendNANA
18:00 Legend Double Dagger 9.7 -0.8 48 19 5 64.4 98.55     LegendNANA
19:00 Legend Double Dagger 8.1 -2.2 48 9 6 64.4 98.61     Clear
20:00 Legend Double Dagger 6.7 -1.0 58 8 6 64.4 98.68     LegendNANA
21:00 Legend Double Dagger 6.1 -0.2 64 12 8 64.4 98.76     LegendNANA
22:00 Legend Double Dagger 4.1 -2.5 62 4 5 64.4 98.82     Clear
23:00 Legend Double Dagger 2.9 -3.0 65 1 3 64.4 98.85     LegendNANA

Notes on Data Quality.

Legend

  • E = Estimated
  • M = Missing
  • NA = Not Available
  • ‡ = Partner data that is not subject to review by the National Climate Archives
Date modified: